Temperature
20 20 19 19 19 19 19 18 18 18 18 18 18 18 18 18 17 17 17 17 16 16 16 16 15 15 15 15 15 15 14 14 14 14 14 14 14 14 14 14 14 13 13
21 20 19 19 18 18 18 18 18 18 18 18 18 18 17 17 17 17 17 16 16 16 15 15 15 15 15 15 14 14 14 14 14 14 14 14 14 14 14 14 13 13 13
20 20 19 19 18 18 18 18 17 17 17 17 17 17 17 17 17 17 16 16 16 15 15 15 15 15 14 14 14 14 14 14 14 14 14 14 13 13 13 13 13 13 13
20 19 19 18 18 18 17 17 17 17 17 17 17 17 17 17 17 16 16 16 15 15 15 15 14 14 14 14 14 14 14 14 14 14 14 13 13 13 13 13 12 12 12
19 19 19 18 18 17 17 17 17 17 17 17 17 16 16 16 16 16 16 15 15 15 15 14 14 14 14 14 14 14 14 14 14 13 13 13 13 12 12 12 12 12 12
19 18 18 18 17 17 17 17 16 16 16 16 16 16 16 16 16 16 15 15 15 15 15 14 14 14 14 14 14 13 13 13 13 13 13 13 12 12 12 12 12 12 11
18 18 18 17 17 17 17 17 16 16 16 16 16 16 16 15 15 15 15 15 14 14 14 14 14 14 14 14 13 13 13 13 13 13 12 12 12 12 12 12 11 11 11
17 17 17 17 16 16 16 16 16 16 16 16 16 15 15 15 15 15 15 14 14 14 14 14 14 14 14 13 13 13 13 13 12 12 12 12 12 11 11 12 11 11 11
16 16 16 16 16 16 16 16 16 16 15 15 15 15 15 15 15 15 14 14 14 14 14 14 14 14 13 13 13 13 13 12 12 12 12 12 11 11 11 11 11 11 11
16 16 16 16 15 15 15 15 15 15 15 15 15 15 15 15 14 14 14 14 14 14 14 14 14 13 13 13 12 12 12 12 12 12 12 11 11 11 11 11 11 11 10
15 15 15 15 15 15 15 15 15 15 15 15 15 14 14 14 14 14 14 14 13 13 14 14 13 13 13 12 12 12 12 12 12 12 12 11 11 11 11 11 11 11 10
14 14 14 15 15 15 15 14 14 14 14 14 14 14 14 14 14 14 13 13 13 13 13 13 13 13 12 12 12 12 12 12 12 12 11 11 11 10 10 10 10 10 10
13 13 14 14 14 14 14 14 14 14 14 14 14 14 14 14 14 13 13 13 13 13 13 13 13 12 12 12 12 12 11 11 11 11 11 11 11 10 10 10 10 10 10
13 13 13 13 14 14 14 14 14 14 13 13 14 14 14 13 13 13 13 13 13 13 13 13 12 12 12 12 12 11 11 11 11 11 11 11 11 10 10 10 10 10 10
12 13 13 13 13 13 13 13 13 13 13 13 13 13 13 13 13 13 13 13 12 12 12 12 12 12 12 11 11 11 11 11 11 11 11 10 10 10 10 10 9 9 9
12 12 12 12 13 13 13 13 13 13 13 13 13 13 13 13 13 13 13 12 12 12 12 12 12 12 11 11 11 11 11 11 11 11 10 10 10 10 10 10 9 9 9
12 12 12 12 12 12 12 12 12 13 13 12 12 13 12 12 12 12 12 12 12 12 12 12 12 11 11 11 11 11 10 10 10 10 10 10 10 10 10 10 9 9 9
11 11 11 12 12 12 12 12 12 12 12 12 12 12 12 12 12 12 12 12 12 12 12 11 11 11 11 11 10 10 10 10 10 10 10 10 10 10 10 9 9 9 9
11 11 11 11 11 11 12 11 12 12 12 12 12 12 12 12 12 12 12 12 12 12 11 11 11 11 11 11 10 10 10 10 10 10 10 10 10 9 9 9 9 9 9
10 11 11 11 11 11 11 11 11 11 11 11 12 12 11 11 11 11 11 11 11 11 11 11 11 11 11 10 10 10 10 10 10 10 10 10 10 9 9 9 9 9 9
10 10 10 11 10 10 10 10 10 10 11 11 11 11 11 11 11 11 11 11 11 11 11 11 11 11 10 10 10 10 10 10 9 9 9 9 9 9 9 9 9 9 9
10 10 10 10 10 10 10 10 10 10 10 11 11 11 11 11 11 11 11 11 11 11 11 11 11 10 10 10 10 9 9 9 9 9 9 9 9 9 9 9 9 9 9
10 10 10 10 10 9 9 9 9 9 10 10 10 10 11 11 11 11 11 11 11 11 11 11 11 11 10 10 10 10 9 9 9 9 9 9 9 9 9 9 9 9 9
10 10 10 9 9 9 9 9 9 9 9 10 10 10 10 10 11 11 11 11 11 11 11 11 11 11 11 10 10 10 10 10 10 9 9 9 9 9 9 9 9 9 8
9 9 9 9 9 9 9 9 9 9 9 10 10 10 10 10 10 11 11 11 11 11 11 11 10 10 11 10 10 10 10 10 10 10 9 9 9 9 9 9 9 8 8
9 9 9 9 9 9 9 9 9 9 9 9 10 10 10 10 10 10 11 11 11 10 10 11 10 10 11 11 10 10 10 10 10 10 10 10 9 9 9 9 8 8 8
Wind_Speed
6 10 20 21 21 21 21 21 22 21 21 21 21 21 21 21 22 21 21 20 19 19 19 18 19 19 19 19 18 18 17 17 17 17 16 16 16 16 16 16 15 14 17
10 14 20 21 21 21 21 21 21 21 21 21 21 21 21 21 21 21 21 20 19 18 18 19 19 19 18 18 17 17 17 17 16 16 16 15 15 16 16 16 15 14 17
12 15 20 21 21 21 21 21 21 21 21 21 21 21 21 21 21 21 20 20 19 18 18 18 18 18 18 17 17 17 17 17 16 16 14 12 13 16 16 16 16 17 17
12 13 17 21 21 21 21 21 21 21 21 21 21 21 21 21 21 21 20 20 19 19 18 18 18 18 17 17 16 16 17 17 16 15 12 11 11 15 16 16 16 17 17
9 11 15 21 21 21 21 21 21 21 21 21 21 21 21 21 21 21 20 20 20 19 19 19 18 18 17 16 16 16 16 17 16 14 12 11 11 15 16 16 16 16 16
7 8 13 19 21 21 21 21 22 22 21 21 21 21 21 21 21 21 20 20 20 20 20 19 18 17 17 16 15 16 17 17 15 13 11 10 11 15 16 15 15 15 15
4 6 10 16 19 20 21 21 21 22 21 21 21 22 22 21 21 21 21 21 21 21 20 19 18 17 16 15 15 16 17 17 14 12 10 10 11 14 15 14 14 14 14
4 5 8 13 15 17 19 20 20 21 21 21 21 22 22 22 21 21 21 21 21 20 20 19 18 17 16 15 15 16 17 16 13 10 9 9 11 13 13 13 13 13 13
2 3 5 8 11 14 16 18 19 19 20 21 21 21 22 22 22 22 22 21 21 20 20 19 18 17 16 15 14 15 16 15 12 9 8 8 11 13 13 12 12 12 12
0 2 3 5 7 9 11 15 16 17 19 19 19 20 21 22 23 22 22 21 21 21 20 19 18 17 16 14 13 14 16 15 12 9 7 8 11 12 12 11 11 11 11
2 1 3 3 5 7 8 12 14 15 16 18 18 19 19 17 18 19 20 21 21 21 20 19 18 16 14 13 13 14 14 12 11 9 7 9 10 11 11 10 10 10 9
5 4 4 4 5 6 7 8 9 10 12 13 14 15 14 14 15 16 20 21 21 20 20 19 18 15 11 9 10 12 11 12 10 8 7 10 10 10 10 10 9 9 8
6 6 5 5 5 5 5 6 6 6 8 10 13 13 13 13 12 13 13 16 17 17 14 15 13 10 8 7 7 9 11 10 9 8 8 9 9 9 9 9 8 8 7
7 7 6 6 5 5 6 6 6 6 6 7 11 13 12 8 8 9 8 10 11 11 10 9 7 8 7 8 8 8 9 9 9 8 8 9 9 9 9 9 8 7 6
7 7 6 6 6 5 5 6 6 7 7 8 10 13 13 9 9 9 9 10 10 11 10 8 7 7 6 6 7 8 8 9 10 9 8 9 9 9 8 8 7 6 5
8 7 7 6 7 6 5 6 6 7 8 9 9 12 14 12 10 10 9 9 9 11 11 10 9 7 6 5 5 7 8 9 9 9 9 9 9 9 8 8 7 5 4
8 7 8 7 7 8 7 7 7 8 9 8 9 13 15 14 13 11 10 9 10 12 12 10 8 6 6 5 5 6 7 8 8 9 9 8 8 8 8 7 6 5 4
8 8 8 7 7 8 7 7 6 7 8 8 10 12 15 15 16 11 9 10 12 11 10 9 8 6 6 5 5 4 5 6 7 8 9 9 8 7 7 7 7 6 4
8 8 8 7 7 8 7 6 7 7 8 8 9 11 13 15 16 13 9 10 13 10 8 10 8 7 7 6 5 4 4 4 5 6 6 8 9 9 8 7 7 6 5
7 7 8 7 7 7 6 5 5 6 7 8 9 10 13 14 15 13 10 10 12 10 9 9 9 7 7 7 5 4 3 3 4 5 6 7 8 9 9 8 7 6 5
6 5 7 7 7 6 6 6 7 7 7 7 8 12 14 14 14 13 10 10 10 11 11 12 8 9 7 6 5 3 1 0 3 4 4 5 6 8 9 8 8 6 5
6 5 6 8 8 8 7 7 7 7 7 7 8 10 13 14 14 13 12 11 10 10 12 12 10 8 6 7 6 5 2 1 2 3 4 5 5 6 6 8 8 7 6
6 6 6 7 8 9 8 6 5 5 5 6 8 9 11 14 14 13 13 12 11 11 12 13 13 10 9 7 7 6 5 5 2 2 3 4 5 4 4 6 7 8 7
6 5 5 7 8 8 8 8 9 9 8 8 8 8 9 12 13 14 13 13 13 11 12 14 13 10 12 9 6 3 3 5 4 2 2 3 4 5 5 4 5 7 7
4 4 5 6 8 8 8 10 10 10 8 6 7 8 9 9 12 14 14 13 12 11 13 14 13 12 10 10 8 5 3 2 3 4 3 3 2 3 4 4 4 5 7
3 3 4 6 8 8 8 9 11 12 10 9 9 10 9 8 10 13 13 13 13 11 13 14 15 14 12 10 9 6 6 5 5 4 4 4 3 2 3 3 4 4 6
Wind_Direction
182 177 174 169 165 162 158 154 151 148 146 143 141 138 136 134 132 131 131 130 129 128 126 123 119 116 114 112 110 107 103 100 96 95 95 94 93 93 92 89 85 80 84
166 172 172 170 167 164 161 158 154 151 149 147 146 143 141 139 138 137 136 135 134 133 130 126 122 119 116 114 112 111 107 103 98 95 94 93 95 97 96 94 90 87 84
155 169 171 170 168 166 164 161 157 155 153 152 150 148 147 145 144 142 141 140 138 135 131 128 124 121 119 117 116 114 110 107 102 100 94 87 97 100 98 94 91 87 83
156 167 171 172 170 169 167 164 161 159 158 156 155 153 152 150 148 147 145 143 140 136 133 130 127 125 123 121 119 116 112 109 105 103 90 84 95 100 99 95 91 87 84
153 164 173 174 173 171 170 168 165 164 162 160 159 158 157 154 152 150 148 145 141 138 135 132 130 129 127 125 121 118 115 112 108 101 91 88 93 101 99 95 91 87 86
150 158 169 174 175 174 173 171 169 168 167 166 165 163 162 159 156 153 150 147 143 140 138 136 134 133 132 128 124 122 119 116 109 100 95 94 97 102 101 97 94 90 88
155 159 165 173 177 176 176 174 173 172 172 170 170 168 165 162 158 156 153 149 146 143 142 140 138 138 136 130 125 124 121 120 112 105 100 100 104 104 102 101 97 93 90
153 165 167 170 174 177 176 175 175 175 175 174 174 172 168 165 161 159 156 153 150 148 146 144 143 143 141 134 129 125 125 123 118 112 108 110 114 109 106 103 99 97 93
122 155 169 170 170 173 178 179 179 177 176 177 177 175 171 168 164 162 159 157 154 152 150 148 148 147 145 139 132 128 127 126 122 118 117 117 119 113 109 107 103 100 95
74 166 175 171 170 173 175 178 180 180 180 178 176 174 171 169 167 164 162 160 157 155 153 152 151 151 147 142 134 129 129 129 125 120 122 127 124 120 115 111 108 103 97
272 221 187 183 178 174 178 178 177 179 180 177 174 169 169 169 165 164 162 161 160 158 157 156 155 154 150 144 135 129 128 132 130 128 133 135 132 127 124 119 114 109 103
263 239 211 192 192 180 180 174 173 176 174 173 172 168 165 161 163 164 163 163 162 160 160 160 159 157 148 138 133 128 129 136 135 137 146 143 139 135 131 128 122 116 111
238 242 225 207 189 184 180 173 168 167 168 170 171 168 163 157 158 158 161 163 161 159 157 160 156 152 150 145 134 131 139 142 143 145 155 150 147 143 138 135 130 126 118
246 243 234 208 193 190 183 180 175 171 173 174 172 171 164 165 165 162 160 161 159 157 154 153 152 157 159 155 145 139 143 146 151 151 160 156 155 152 148 144 139 134 129
243 238 234 219 196 191 192 189 184 181 183 180 175 175 170 171 173 170 169 164 165 162 160 160 161 165 165 160 156 149 150 153 157 158 161 160 159 159 156 155 151 147 140
242 237 231 227 207 191 197 199 191 185 183 182 180 180 177 173 176 176 174 170 171 171 167 167 168 168 168 162 157 154 156 159 161 163 163 165 166 167 166 164 161 159 153
244 232 227 224 212 196 199 203 201 188 185 190 188 183 183 180 179 182 177 177 176 174 170 166 166 163 161 160 160 157 157 164 164 167 166 165 170 175 176 173 173 172 172
242 231 223 226 220 207 200 205 206 197 189 191 188 185 185 185 183 184 182 182 178 173 171 167 166 162 162 161 162 164 160 163 169 173 172 172 174 177 181 181 182 182 186
233 223 219 218 211 212 208 207 207 204 196 193 190 191 190 188 186 185 187 186 177 173 175 174 169 164 164 164 165 165 166 166 172 174 175 179 182 183 184 187 189 195 201
231 225 215 213 204 206 207 207 205 206 199 195 194 195 189 188 189 186 185 186 179 174 176 173 167 165 163 162 155 151 166 174 173 178 183 183 187 189 188 185 187 198 207
235 227 218 208 200 196 202 200 202 206 203 201 201 196 191 189 190 190 187 185 185 181 178 172 165 164 163 152 131 115 34 216 193 192 183 178 186 190 188 189 188 190 203
230 223 225 215 202 200 207 208 207 209 206 203 202 199 194 191 192 193 187 185 187 184 177 176 165 162 165 162 150 142 146 286 257 209 191 187 187 181 185 190 186 187 192
231 230 235 229 212 208 207 209 211 210 201 204 201 198 199 194 195 195 189 187 186 187 184 181 175 166 168 173 166 156 162 199 209 245 211 195 186 180 184 183 186 190 193
237 239 243 240 221 215 208 208 210 212 210 211 204 203 200 198 197 195 191 190 188 191 187 184 180 174 166 173 179 178 163 150 157 190 242 212 194 192 193 187 184 189 194
242 248 253 251 228 217 215 215 216 216 215 209 204 202 202 205 201 194 193 192 191 194 191 184 180 180 177 175 175 166 156 143 141 155 194 207 209 212 199 189 184 190 197
258 260 269 259 238 219 218 219 218 213 208 206 208 204 204 208 204 197 195 195 191 194 193 187 184 183 184 179 176 173 167 165 175 166 181 194 202 216 199 194 193 196 197
Height
1479 1481 1483 1484 1486 1488 1490 1491 1493 1495 1498 1500 1502 1504 1505 1507 1509 1510 1511 1512 1514 1515 1516 1517 1517 1518 1519 1519 1520 1520 1521 1521 1521 1522 1522 1522 1522 1522 1522 1522 1522 1522 1522
1478 1480 1482 1484 1486 1488 1489 1491 1493 1495 1497 1499 1501 1503 1505 1506 1508 1509 1511 1512 1513 1515 1516 1517 1517 1518 1519 1520 1520 1521 1521 1522 1522 1522 1522 1523 1523 1523 1523 1523 1523 1523 1523
1478 1480 1482 1484 1486 1487 1489 1491 1493 1495 1497 1499 1501 1503 1504 1506 1507 1509 1510 1512 1513 1515 1516 1517 1517 1518 1519 1520 1520 1521 1522 1522 1522 1523 1523 1523 1524 1524 1524 1524 1524 1524 1524
1478 1480 1481 1483 1485 1487 1489 1491 1492 1494 1496 1498 1500 1502 1504 1505 1507 1508 1510 1511 1512 1514 1515 1516 1517 1518 1519 1520 1521 1521 1522 1522 1523 1523 1524 1524 1525 1525 1525 1525 1526 1525 1525
1478 1479 1481 1483 1485 1486 1488 1490 1492 1493 1495 1497 1499 1501 1503 1504 1506 1508 1509 1510 1512 1513 1514 1516 1517 1518 1519 1520 1521 1521 1522 1523 1523 1524 1524 1525 1525 1526 1526 1526 1527 1526 1526
1477 1478 1480 1482 1484 1485 1487 1489 1490 1492 1494 1496 1498 1500 1502 1503 1505 1507 1508 1510 1511 1512 1514 1515 1517 1518 1519 1520 1521 1522 1522 1523 1524 1525 1525 1526 1526 1527 1527 1527 1528 1527 1527
1476 1477 1479 1480 1482 1484 1486 1488 1489 1491 1493 1495 1497 1499 1500 1502 1504 1506 1507 1509 1510 1512 1513 1515 1516 1518 1519 1520 1521 1522 1522 1524 1525 1525 1526 1527 1527 1528 1528 1528 1528 1528 1528
1475 1476 1478 1479 1481 1483 1485 1486 1488 1489 1491 1493 1495 1497 1499 1501 1502 1504 1506 1508 1509 1511 1513 1514 1516 1517 1519 1520 1521 1522 1523 1524 1525 1526 1526 1527 1528 1528 1528 1529 1529 1529 1528
1473 1475 1476 1478 1479 1481 1483 1485 1486 1488 1489 1491 1493 1495 1497 1499 1501 1503 1505 1507 1508 1510 1512 1513 1515 1517 1518 1520 1521 1522 1523 1524 1525 1526 1527 1527 1528 1528 1528 1529 1529 1529 1529
1471 1472 1474 1476 1477 1479 1481 1483 1484 1486 1488 1489 1491 1493 1495 1497 1499 1501 1503 1505 1507 1509 1511 1512 1514 1516 1518 1519 1520 1521 1523 1524 1525 1526 1527 1528 1528 1529 1529 1529 1529 1529 1529
1469 1470 1471 1473 1475 1476 1478 1480 1481 1483 1485 1487 1489 1490 1492 1494 1497 1499 1501 1503 1505 1507 1509 1511 1513 1516 1517 1519 1520 1521 1522 1524 1525 1526 1527 1528 1528 1529 1529 1529 1529 1529 1529
1464 1466 1468 1469 1471 1473 1475 1476 1478 1480 1482 1484 1485 1487 1489 1492 1494 1496 1499 1501 1503 1506 1508 1510 1512 1515 1516 1518 1519 1521 1522 1524 1525 1526 1527 1527 1528 1529 1529 1529 1529 1529 1529
1461 1462 1464 1466 1468 1469 1471 1473 1474 1476 1478 1480 1482 1484 1486 1489 1491 1493 1496 1499 1501 1504 1506 1509 1511 1513 1515 1517 1518 1520 1521 1523 1524 1525 1526 1527 1528 1529 1529 1529 1529 1529 1528
1459 1459 1460 1462 1464 1465 1467 1469 1470 1472 1474 1475 1478 1480 1483 1485 1488 1490 1492 1495 1498 1500 1503 1506 1509 1512 1514 1516 1517 1519 1520 1522 1524 1525 1526 1526 1527 1528 1528 1528 1528 1528 1528
1455 1456 1456 1457 1459 1461 1463 1465 1466 1468 1470 1472 1474 1476 1479 1481 1484 1487 1489 1492 1495 1497 1500 1504 1507 1510 1512 1514 1516 1518 1519 1521 1523 1524 1525 1526 1526 1527 1527 1528 1528 1528 1528
1451 1451 1452 1453 1455 1456 1458 1460 1462 1464 1466 1468 1470 1472 1474 1477 1480 1483 1486 1488 1491 1494 1497 1501 1505 1508 1510 1513 1514 1516 1518 1520 1521 1522 1524 1524 1525 1526 1526 1527 1527 1527 1527
1445 1447 1448 1449 1450 1451 1453 1455 1457 1459 1461 1464 1466 1468 1471 1474 1477 1479 1482 1484 1488 1491 1495 1498 1502 1506 1508 1511 1513 1515 1516 1518 1520 1521 1522 1523 1524 1525 1525 1526 1526 1526 1525
1441 1442 1443 1444 1445 1446 1448 1450 1452 1454 1456 1459 1461 1464 1467 1469 1472 1476 1478 1480 1484 1488 1491 1495 1498 1502 1505 1508 1511 1513 1515 1516 1518 1519 1520 1521 1523 1523 1524 1524 1524 1524 1524
1436 1437 1438 1439 1439 1441 1443 1444 1447 1449 1451 1454 1456 1459 1462 1464 1468 1471 1474 1476 1480 1483 1487 1491 1495 1498 1501 1505 1509 1511 1513 1514 1516 1517 1518 1520 1521 1521 1522 1523 1523 1523 1523
1432 1432 1432 1433 1434 1436 1438 1440 1442 1443 1446 1449 1451 1454 1457 1460 1463 1466 1469 1472 1475 1479 1483 1487 1491 1495 1498 1502 1506 1509 1511 1513 1514 1515 1516 1517 1518 1519 1520 1521 1521 1521 1521
1427 1427 1427 1428 1429 1431 1433 1434 1435 1437 1439 1442 1445 1448 1451 1454 1458 1461 1464 1467 1470 1473 1477 1482 1486 1490 1495 1499 1503 1506 1509 1511 1512 1513 1514 1514 1515 1516 1517 1518 1518 1519 1518
1422 1422 1423 1423 1424 1426 1427 1429 1430 1432 1434 1436 1440 1443 1446 1449 1452 1455 1458 1461 1465 1469 1472 1477 1481 1485 1490 1494 1497 1502 1505 1508 1508 1509 1510 1511 1512 1513 1514 1515 1515 1516 1515
1418 1419 1419 1418 1419 1420 1422 1424 1425 1427 1429 1431 1433 1437 1440 1443 1447 1450 1453 1456 1460 1464 1466 1471 1476 1479 1483 1489 1493 1496 1499 1500 1503 1505 1506 1508 1509 1510 1510 1511 1512 1512 1512
1414 1414 1414 1415 1414 1415 1416 1418 1418 1420 1421 1423 1427 1431 1434 1437 1441 1444 1447 1451 1455 1459 1462 1466 1471 1475 1478 1482 1487 1491 1493 1494 1497 1500 1502 1504 1505 1506 1507 1507 1508 1509 1509
1411 1410 1410 1410 1410 1410 1411 1412 1413 1415 1416 1419 1423 1425 1428 1432 1435 1438 1442 1446 1449 1453 1456 1460 1465 1471 1474 1476 1480 1485 1488 1490 1492 1494 1496 1499 1501 1502 1503 1504 1504 1505 1505
1407 1406 1406 1405 1405 1404 1406 1407 1408 1409 1411 1414 1416 1420 1423 1426 1429 1433 1436 1440 1443 1447 1451 1454 1460 1465 1469 1472 1476 1480 1482 1485 1487 1490 1491 1494 1496 1498 1499 1500 1500 1501 1501